Location: Igon
(43.1667°N, 0.2333°W)
Time: 13:48:38
(UTC+00:00)

SAR-Lupe-4 - Pass Details

Date: 29 November 2020
Orbit: 481 x 484 km, 98.2° (Epoch: 09 January)

Event Time Altitude Azimuth Distance (km) Brightness Sun altitude
Rises 05:16:06 0° 169° (SSE) 2,528 7.5 -20.4°
Reaches altitude 10° 05:18:09 10° 170° (S) 1,654 6.5 -20.1°
Maximum altitude 05:21:42 76° 257° (WSW) 501 3.4 -19.4°
Enters shadow 05:22:33 49° 331° (NNW) 631 3.8 -19.3°
